• Join FlightAware (Why Join?)
  • Login
  • US Flag 
09:09AM EDT


 

Airport Tracker/Info


-or-


 

Live Flight TrackerFlight Track Log ✈ BOE1 ✈ 21-Feb-2010 ✈ KMWH - KBFI

Flight Track Log - Related Links

Times and Time Zones

All times are in EST time to prevent confusion due to time zone crossing. See the BOE1 flight status page for this flight to view local times or setup timezone preferences in your user account.

Time Position Orientation Groundspeed Altitude Reporting Facility
EST Latitude Longitude Course Direction KTS MPH feet Rate Location/Type
01:15PM 47.2267 -119.3370 288° West 16,000  Level Seattle Center
01:16PM 47.2436 -119.4130 293° West 180 207 5,600 -3,900 Descending Seattle Center
01:17PM 47.2731 -119.5140 298° West 228 262 8,200 2,640 Climbing Seattle Center
01:18PM 47.3086 -119.6110 295° West 259 298 10,900 2,880 Climbing Seattle Center
01:19PM 47.3439 -119.7210 300° West 277 319 14,000 2,520 Climbing Seattle Center
01:20PM 47.3856 -119.8290 297° West 297 342 16,000 960 Climbing Seattle Center
01:21PM 47.4250 -119.9450 298° West 307 353 16,000  Level Seattle Center
01:22PM 47.4644 -120.0560 297° West 307 353 16,000  Level Seattle Center
01:23PM 47.5056 -120.1760 298° West 307 353 16,000  Level Seattle Center
01:24PM 47.5447 -120.2860 296° West 307 353 16,000  Level Seattle Center
01:25PM 47.5839 -120.4040 300° West 312 359 16,000  Level Seattle Center
01:26PM 47.6269 -120.5150 291° West 312 359 16,000  Level Seattle Center
01:27PM 47.6553 -120.6260 300° West 307 353 16,000  Level Seattle Center
01:28PM 47.6981 -120.7380 299° West 302 348 16,000 -60 Level Seattle Center
01:29PM 47.7408 -120.8530 297° West 309 356 15,900 -60 Descending Seattle Center
01:30PM 47.7811 -120.9710 295° West 309 356 15,900  Level Seattle Center
01:31PM 47.8133 -121.0730 295° West 324 373 15,900 -300 Level Seattle Center
01:32PM 47.8556 -121.2070 279° West 314 361 15,400 -780 Descending Seattle Center
01:33PM 47.8686 -121.3370 273° West 314 361 14,200 -1,200 Descending Seattle Center
01:34PM 47.8731 -121.4610 272° West 320 368 13,100 -1,200 Descending Seattle Center
01:34PM 47.8742 -121.5230 280° West 319 367 12,600 -1,140 Descending Seattle Center
01:35PM 47.8817 -121.5880 272° West 320 368 12,000 -1,140 Descending Seattle Center
01:35PM 47.8828 -121.6470 266° West 302 348 11,500 -1,140 Descending Seattle Center
01:36PM 47.8797 -121.7060 225° Southwest 305 351 10,900 -1,200 Descending Seattle Center
01:36PM 47.8519 -121.7480 224° Southwest 296 341 10,300 -1,140 Descending Seattle Center
01:37PM 47.8222 -121.7900 200° South 278 320 9,800 -1,080 Descending Seattle Center
01:37PM 47.7739 -121.8160 200° South 283 326 9,100 -1,140 Descending Seattle Center
01:38PM 47.7486 -121.8300 200° South 264 304 8,700 -1,020 Descending Seattle Center
01:38PM 47.7150 -121.8480 184° South 272 313 8,200 -1,200 Descending Seattle Center
01:39PM 47.6756 -121.8520 197° South 264 304 7,500 -1,320 Descending Seattle Center
01:39PM 47.6378 -121.8690 182° South 263 303 6,900 -1,440 Descending Seattle Center
01:40PM 47.6044 -121.8710 198° South 264 304 6,100 -1,800 Descending Seattle Center
01:40PM 47.5686 -121.8880 230° Southwest 254 292 5,100 -1,140 Descending Seattle Center
01:41PM 47.5517 -121.9180 250° West 259 298 5,000 -360 Descending Seattle Center
01:41PM 47.5403 -121.9640 240° Southwest 236 272 4,800 -840 Descending Seattle Center
01:42PM 47.5228 -122.0090 240° Southwest 222 255 4,200 -780 Descending Seattle Center
01:43PM 47.4967 -122.0760 237° Southwest 234 269 3,800 -540 Descending Seattle Center
01:43PM 47.4900 -122.0910 245° Southwest 233 268 3,700 -600 Descending Seattle Center
01:43PM 47.4789 -122.1270 240° Southwest 219 252 3,400 -1,140 Descending Seattle Center
01:44PM 47.4636 -122.1660 252° West 226 260 2,600 -1,020 Descending Seattle Center
01:45PM 47.4522 -122.2180 290° West 183 211 2,100 -720 Descending Seattle Center
01:45PM 47.4558 -122.2330 319° Northwest 202 232 1,900 -1,140 Descending Seattle Center
01:45PM 47.4783 -122.2620 335° Northwest 163 188 1,200 -1,200 Descending Seattle Center
01:46PM 47.4925 -122.2720 325° Northwest 146 168 700 -1,140 Descending Seattle Center
01:46PM 47.5108 -122.2910 340° North 150 173 100 15,300 Descending Seattle Center
01:47PM 47.5294 -122.3010 313° West 141 162 16,000 10,560 Climbing Seattle Center
01:48PM 47.5597 -122.3490 320° Northwest 141 162 16,000  Level Seattle Center
01:49PM 47.5900 -122.3870 320° Northwest 141 162 16,000  Level Seattle Center